Regional Weather Roundup
Issued by NWS

Home | Current Version | Previous Version | Graphics & Text | Print | Product List | Glossary On
Versions: 1 2 3 4 5 6 7 8 9 10 11 12 13 14 15 16 17 18 19 20 21 22 23 24 25 26 27 28 29 30 31 32 33 34 35 36 37 38 39 40 41 42 43 44 45 46 47 48 49 50
000
ASUS45 KTFX 280419
RWRMT
MONTANA HOURLY WEATHER ROUNDUP
NATIONAL WEATHER SERVICE GREAT FALLS MT
1019 PM MDT SUN JUL 27 2014

NOTE: "FAIR" INDICATES FEW OR NO CLOUDS BELOW 12000 FEET WITH NO
SIGNIFICANT WEATHER AND/OR OBSTRUCTIONS TO VISIBILITY.

* THESE STATIONS ARE NOT UNDER NWS QUALITY CONTROL. THEY DO NOT
   REPORT WEATHER SUCH AS PRECIPITATION OR FOG.

MTZ001>007-043-280500-
WEST OF THE DIVIDE
CITY           SKY/WX    TMP DP  RH WIND       PRES   REMARKS
KALISPELL      PTCLDY    66  52  61 NW3       30.16R
MISSOULA       PTCLDY    79  39  24 NW12      30.15R
BUTTE          CLEAR     73  30  20 W7        30.30R
MULLAN PASS    PTCLDY    68  36  31 CALM      30.35S
* ESSEX        N/A       64  46  52 E2         N/A
* LINCOLN      N/A       70  53  55 NW1        N/A
* LOOKOUT PASS N/A       67  41  39 N/A        N/A
* POLSON       N/A       69  39  34 NE2        N/A
* RONAN APT    MOCLDY    70  52  53 N/A        N/A
* SEELEY LAKE  N/A       69  39  34 NE1G7      N/A
* THOMP F APT  PTCLDY    69  27  21 NE4        N/A
* YAAK HILL    N/A       72  46  40 N/A        N/A
$$

MTZ008-052>055-280500-
SOUTHWEST MONTANA
CITY           SKY/WX    TMP DP  RH WIND       PRES   REMARKS
BOZEMAN        CLEAR     68  41  38 SE6       30.23R
DILLON         CLEAR     70  32  25 SE8       30.23R
W YELLOWSTONE  CLEAR     61  36  39 CALM      30.38R
* THREE FORKS  CLEAR     66  50  56 N/A        N/A
* BOULDER HILL N/A       68  33  27 N/A        N/A
* MONIDA PASS  N/A       68  24  19 NE12       N/A
* RAYNOLDS PAS N/A       67  64  90 N7         N/A
* WHITEHALL    N/A       76  33  21 SE3        N/A
* WISE RIVER   N/A       74  32  21 SE9G14     N/A
$$

MTZ009>010-012-014-046-048-049-054-280500-
EAST SLOPES AND CENTRAL MONTANA
CITY           SKY/WX    TMP DP  RH WIND       PRES   REMARKS
CUT BANK       PTCLDY    72  39  30 E6        30.24R
GREAT FALLS    PTCLDY    75  37  25 E9        30.20R
HELENA         PTCLDY    73  41  32 N8        30.19R
MALMSTROM AFB  PTCLDY    70  39  32 NE6       30.21R
* CONRAD       PTCLDY    64  52  65 N/A        N/A
* DEARBORN     N/A       81  36  20 N8G15      N/A
* EAST GLACIER N/A       66  43  43 E2         N/A
* MONARCH      N/A       63  34  34 E9         N/A
* ROGERS PASS  N/A       65  36  34 NW2        N/A
* SAINT MARY   N/A       58  45  62 SE3        N/A
* SWEET GRASS  N/A       69  46  44 E9         N/A
* WHITE SULPH  N/A       70  40  34 NE8G15     N/A
$$

MTZ011-013-016-021-035-040-045-047-050-051-280500-
NORTH CENTRAL MONTANA
CITY           SKY/WX    TMP DP  RH WIND       PRES   REMARKS
HAVRE          CLEAR     68  46  45 E9        30.20R
LEWISTOWN      PTCLDY    73  37  27 E15       30.28R
* FORT BENTON  PTCLDY    73  37  27 NE6       30.19R
* CHESTER      N/A       74  42  32 E8G13      N/A
* DENTON       N/A       69  34  28 E4         N/A
* GEYSER       N/A       67  36  32 SE5        N/A
* JUDITH GAP   N/A       66  37  34 E6         N/A
* LOMA         N/A       71  41  34 NE11       N/A
$$

MTZ017>020-022>027-061-062-280500-
NORTHEAST MONTANA
CITY           SKY/WX    TMP DP  RH WIND       PRES   REMARKS
GLASGOW        CLEAR     66  48  52 E10       30.24R
GLENDIVE       CLEAR     64  52  65 E7        30.30R
JORDAN         CLEAR     70  43  38 NE6       30.25R
SIDNEY         CLEAR     63  52  68 CALM      30.30R
WOLF POINT     CLEAR     64  54  70 NE7       30.26R
* BEAVER HILL  N/A       63  52  68 E14        N/A
* CIRCLE       N/A       69  52  55 NE3        N/A
* LINDSAY DVD  N/A       61  52  72 NE8        N/A
* NAVAJO       N/A       61  54  78 SE6        N/A
$$

MTZ028>042-056>058-280500-
SOUTHCENTRAL AND SOUTHEAST MONTANA
CITY           SKY/WX    TMP DP  RH WIND       PRES   REMARKS
BAKER          CLEAR     61  52  72 E9        30.31R
BILLINGS       FAIR      75  43  32 NE8       30.25R
LIVINGSTON     CLEAR     72  39  30 E9        30.25R
MILES CITY     CLEAR     72  46  40 NE7       30.25R
* LAUREL APT   CLEAR     72  39  30 N/A        N/A
* ROUNDUP APT  CLEAR     73  37  27 N/A        N/A
* ALZADA       N/A       66  51  59 NE8        N/A
* HYSHAM       N/A       70  37  30 E7         N/A
* LAME DEER    N/A       67  41  39 NE9        N/A
* REED POINT   N/A       74  42  32 SE2        N/A
* ROSCOE HILL  N/A       68  38  33 SE7        N/A
$$

REGIONAL REPORTS...DAKOTAS
CITY           SKY/WX    TMP DP  RH WIND       PRES   REMARKS
WILLISTON      CLEAR     63  54  73 E3        30.29R
DICKINSON      CLEAR     57  52  83 E7        30.30R
CROSBY         N/A       57  57 100 E3        30.30S
TIOGA          CLEAR     54  54 100 CALM      30.33S
WATFORD CITY   CLEAR     57  54  90 SE7       30.28S
BISMARCK       CLEAR     57  52  83 CALM      30.29R
GRAND FORKS    CLOUDY    61  57  87 NW3       30.21R
FARGO          MOCLDY    61  55  81 N6        30.20R
BUFFALO SD     CLEAR     61  54  78 E10       30.26R
RAPID CITY     CLEAR     63  52  68 E8        30.32R
$$

REGIONAL REPORTS...WYOMING/IDAHO/WASHINGTON
CITY           SKY/WX    TMP DP  RH WIND       PRES   REMARKS
GILLETTE       PTCLDY    61  43  52 E3        30.32R
SHERIDAN       CLEAR     64  48  56 VRB3      30.28R
YELLOWSTONE LA CLEAR     52  37  57 CALM      30.49R
SALMON         CLEAR     72  34  25 CALM      30.11R
MULLAN PASS    PTCLDY    68  36  31 CALM      30.35S
SAND POINT     PTCLDY    63  52  68 CALM      30.11R
SPOKANE        CLOUDY    84  36  18 NE5       30.09S
$$

REGIONAL REPORTS...ALBERTA
CITY           SKY/WX    TMP DP  RH WIND       PRES   REMARKS
CALGARY        FAIR      64  48  56 SE8       30.24R
LETHBRIDGE     PTCLDY    63  54  73 E9        30.19R
MEDICINE HAT   CLEAR     72  50  46 E12G17    30.20R
EDMONTON       FAIR      59  55  87 SE8       30.20S
WATERTON GATE  N/A       57  54  90 SW3        N/A
CARDSTON       N/A       64  55  73 SW2        N/A
MILK RIVER     N/A       61  46  58 E7         N/A
$$

REGIONAL REPORTS...SASKATCHEWAN
CITY           SKY/WX    TMP DP  RH WIND       PRES   REMARKS
SWIFT CURRENT  CLEAR     61  54  78 NE7       30.26R
REGINA         FAIR      61  57  87 SE6       30.29R
VAL MARIE      N/A       57  54  90 E6         N/A
ASSINIBOIA     N/A       61  57  87 E6         N/A
CORONACH       N/A       57  54  90 SE3        N/A

$$



USA.gov is the U.S. government's official web portal to all federal, state and local government web resources and services.